THORAD DELTA 1 DEB, 8296

Orbit data source: Space-Track

THORAD DELTA 1 DEB, 8296 is space debris in SSO originally from a launch on Fri, 15 Nov 1974 UTC launched from the Air Force Western Test Range (AFWTR). Debris objects in space refer to the collection of defunct objects orbiting the Earth. Examples of debris include non-operational satellites, rocket bodies, and fragments generated from explosions, collisions, or faulty payload assembly.

Loading next visibility...
Identifier
8296, 1974-089BD
Orbit
SSO
Country
Flag of USUS
Related business
Manufacturer
Unknown
Mission
Spacecraft
Bus & Motor
Unknown
Mass
Unknown
Launch date (UTC)
1974-11-15 (51 years ago)
Launch vehicle
Unknown
Launch site
Air Force Western Test Range (AFWTR)
Object type
Payload
Rocket body
Debris
Shape & HBR
Unknown shape, 0.1 m
Radar Cross Section
Small (<0.1 m²)

Expand to show TLE details & history
Last TLE update: 1 day ago

TLE from 1 day ago
0 THORAD DELTA 1 DEB
1 08296U 74089BD  26129.45159648  .00000281  00000-0  24765-2 0  9992
2 08296 102.5501 312.5945 0217152 247.9164 139.2779 12.33358436343681
Epoch: 2026-05-09T10:50Z
TLE epoch observation values (Epoch: 2026-05-09T10:50:17.935Z)
Latitude
28.07572°
Longitude
-84.03585°
Altitude
1,669.794 km
Speed
6.982 km/s
True Right ascension
20h 23m 13s
True Declination
27° 56' 58"
Sunlit
Object was in daylight at epoch
Visualization orbit readout
Latitude
Unknown
Longitude
Unknown
Altitude
Unknown
Speed
Unknown
Apparent Right ascension
Unknown
Apparent Declination
Unknown
Sunlit
N/A
Visualization observer readout
Local Sidereal Time
19:33:35
Azimuth
Unknown
Elevation
Unknown
Doppler factor
Unknown
Orbital elements
Apogee altitude
1,704.28 km
Perigee altitude
1,360.718 km
Semi-major axis
7,910.636 km
Eccentricity
0.02172
Inclination
102.5501°
RAAN
312.5945°
Arg. of periapsis
247.9164°
True anomaly
140.86834°
Mean anomaly
139.2779°
Eccentric anomaly
140.07638°
Mean motion
3.08479 °/min
Orbital period
116.7 mins
BSTAR
0.0024765
Loading maneuver chart data...
Computing Atmospheric mass density...
Loading historical data...
Loading historical data...
Loading historical data...
Loading historical data...
Loading historical data...
Loading historical data...
Loading historical data...

Documentation

Showing up to 5 results
|